Burlington, IA

6:37 AM CDT on March 27, 2017 (GMT -0500)
Burlington Regional

Weather History for KBRL - September, 2012

Change the Weather History Date:

Tuesday, September 4, 2012

  Actual Average Record
Temperature  
Mean Temperature 82 °F 72 °F  
Max Temperature 91 °F 82 °F 100 °F (1925)
Min Temperature 73 °F 61 °F 40 °F (1974)
Degree Days  
Heating Degree Days 0 0  
Month to date heating degree days 0 0  
Since 1 July heating degree days 3 4  
Cooling Degree Days 17 7  
Month to date cooling degree days 53 31  
Year to date cooling degree days 1235 1074  
Growing Degree Days 32 (Base 50)    
Moisture  
Dew Point 71 °F    
Average Humidity 69    
Maximum Humidity 94    
Minimum Humidity 44    
Precipitation  
Precipitation 0.00 in 0.13 in 1.67 in (2008)
Month to date precipitation 1.49 0.53  
Year to date precipitation 17.16 27.78  
Sea Level Pressure  
Sea Level Pressure 29.84 in    
Wind  
Wind Speed 3 mph (South)    
Max Wind Speed 9 mph    
Max Gust Speed 12 mph    
Visibility 10 miles    
Events      
T = Trace of Precipitation, MM = Missing Value Source: NWS Daily Summary

Daily Weather History Graph

Daily Weather History Graph

Search for Another Location

Airport or City:

Trip Planner

Search our weather history database for the weather conditions in past years. The results will help you decide how hot, cold, wet, or windy it might be!

Date:

Astronomy

Sep. 04, 2012 Rise Set
Actual Time 6:34 AM CDT 7:31 PM CDT
Civil Twilight 6:06 AM CDT 7:58 PM CDT
Nautical Twilight 5:33 AM CDT 8:32 PM CDT
Astronomical Twilight 4:59 AM CDT 9:06 PM CDT
Moon 9:22 PM CDT (9/4) 10:43 AM CDT (9/4)
Length of Visible Light 13h 52m
Length of Day
12h 56m
Waning Gibbous, 83% of the Moon is Illuminated
Sep 4
Waning Gibbous
Sep 8
Last Quarter
Sep 15
New
Sep 22
First Quarter
Sep 29
Full

Hourly Weather History & Observations

Time (CDT) Temp. Heat Index Dew Point Humidity Pressure Visibility Wind Dir Wind Speed Gust Speed Precip Events Conditions
12:53 AM 75.9 °F - 72.0 °F 87% 29.88 in 10.0 mi WSW 3.5 mph - N/A   Partly Cloudy
1:53 AM 75.9 °F - 72.0 °F 87% 29.88 in 10.0 mi Calm Calm - N/A   Partly Cloudy
2:53 AM 75.0 °F - 71.1 °F 87% 29.88 in 10.0 mi Calm Calm - N/A   Clear
3:53 AM 75.0 °F - 71.1 °F 87% 29.85 in 10.0 mi Calm Calm - N/A   Clear
4:53 AM 73.9 °F - 72.0 °F 93% 29.86 in 10.0 mi Calm Calm - N/A   Clear
5:53 AM 73.9 °F - 72.0 °F 93% 29.86 in 10.0 mi Calm Calm - N/A   Clear
6:53 AM 73.9 °F - 72.0 °F 93% 29.87 in 10.0 mi Calm Calm - N/A   Clear
7:53 AM 75.0 °F - 73.0 °F 94% 29.89 in 7.0 mi Calm Calm - N/A   Clear
8:53 AM 77.0 °F - 72.0 °F 84% 29.89 in 10.0 mi Variable 3.5 mph - N/A   Clear
9:53 AM 82.0 °F 86.7 °F 72.0 °F 71% 29.89 in 10.0 mi SW 6.9 mph - N/A   Clear
10:53 AM 84.9 °F 90.7 °F 72.0 °F 65% 29.89 in 10.0 mi SSW 5.8 mph - N/A   Clear
11:53 AM 86.0 °F 91.5 °F 71.1 °F 61% 29.87 in 10.0 mi South 3.5 mph - N/A   Clear
12:53 PM 88.0 °F 93.8 °F 71.1 °F 57% 29.86 in 10.0 mi South 6.9 mph - N/A   Clear
1:53 PM 90.0 °F 95.4 °F 70.0 °F 52% 29.84 in 10.0 mi South 5.8 mph - N/A   Clear
2:53 PM 90.0 °F 92.8 °F 66.9 °F 46% 29.82 in 10.0 mi SSE 5.8 mph - N/A   Clear
3:53 PM 91.0 °F 95.2 °F 68.0 °F 47% 29.82 in 10.0 mi South 5.8 mph - N/A   Clear
4:53 PM 91.0 °F 94.3 °F 66.9 °F 45% 29.81 in 10.0 mi SSE 6.9 mph - N/A   Clear
5:53 PM 90.0 °F 95.4 °F 70.0 °F 52% 29.80 in 10.0 mi South 4.6 mph - N/A   Clear
6:53 PM 84.9 °F 90.7 °F 72.0 °F 65% 29.80 in 10.0 mi SSE 3.5 mph - N/A   Clear
7:53 PM 82.0 °F 86.3 °F 71.1 °F 69% 29.79 in 10.0 mi South 3.5 mph - N/A   Clear
8:53 PM 79.0 °F - 71.1 °F 77% 29.80 in 10.0 mi South 4.6 mph - N/A   Clear
9:53 PM 79.0 °F - 70.0 °F 74% 29.79 in 10.0 mi Calm Calm - N/A   Clear
10:53 PM 77.0 °F - 70.0 °F 79% 29.81 in 10.0 mi South 3.5 mph - N/A   Clear
11:53 PM 75.9 °F - 69.1 °F 79% 29.80 in 9.0 mi SSW 3.5 mph - N/A   Clear